RH
55 61 67 69 69 69 68 67 68 71 73 77 80 82 83 79 76 77 77 76 76 75 76 75 74 74 73 73 73 73 71 70 72 70 68 73 78 75 70 67 65 64 62 60 60 58 56 55 56 58 64 69 72 75 78 78 79 79 78 77 76 75 74 74 73 72 74 75 74 73 74 73 70 73 78 76 73 70 68 67 66 65 64 63 61
55 60 67 70 69 69 70 69 70 71 73 77 80 81 82 79 78 80 79 78 77 76 77 76 75 74 74 75 73 72 71 72 72 70 69 73 74 70 65 60 57 57 56 54 52 50 49 51 50 50 55 60 62 69 73 75 77 77 76 75 74 74 73 73 73 72 73 74 74 74 76 74 68 67 73 76 75 71 70 71 68 65 65 62 60
53 56 63 69 71 72 71 72 73 73 76 80 82 82 81 78 79 81 80 79 77 76 77 75 74 74 73 73 72 72 72 72 70 67 66 67 67 65 59 55 53 52 51 50 50 48 47 49 51 51 53 54 53 57 61 63 67 70 72 72 72 73 74 75 76 75 75 74 75 75 75 74 71 68 67 68 71 72 72 72 69 67 65 63 61
50 51 54 58 64 69 70 73 74 73 75 77 80 81 78 75 76 78 76 74 75 75 75 72 71 72 72 70 70 71 69 66 64 63 60 59 60 59 55 55 52 50 50 49 50 52 49 48 49 50 52 52 50 51 52 54 59 64 65 65 66 68 72 74 72 72 74 75 77 78 76 75 74 74 70 67 69 71 72 72 72 70 67 68 67
48 48 48 47 50 55 58 61 64 65 66 67 72 74 71 70 70 70 69 68 71 72 72 72 72 71 69 68 67 65 62 60 60 58 56 57 59 57 56 56 51 47 49 50 51 53 49 42 42 44 46 47 45 47 50 53 56 58 60 61 61 60 62 62 60 61 63 67 72 77 79 77 75 75 73 69 67 66 70 74 74 72 70 70 69
47 47 48 47 45 44 47 51 54 59 62 63 66 66 63 64 64 62 62 63 66 66 66 69 69 66 64 63 62 60 59 59 59 58 58 60 60 59 56 51 46 44 45 48 49 46 40 35 36 38 38 40 41 43 46 49 53 54 57 59 57 55 56 56 55 55 55 57 61 66 71 74 75 75 74 71 66 63 66 68 69 71 72 70 70
49 49 49 49 46 44 45 48 51 55 60 63 64 60 57 56 57 59 61 61 63 63 63 64 61 60 59 58 58 58 59 59 58 58 60 59 57 58 54 45 41 40 40 42 39 35 31 31 36 37 36 37 38 38 40 43 47 50 52 56 55 53 54 53 54 56 57 57 57 58 61 65 70 72 73 73 72 70 68 66 66 70 72 73 73
50 51 50 49 48 46 45 48 49 48 49 52 53 52 52 51 51 56 61 61 60 58 59 62 61 60 60 60 59 58 59 59 57 55 57 58 55 54 51 43 37 35 34 31 26 23 22 24 29 31 32 33 33 34 38 41 43 45 46 49 53 54 53 53 55 55 57 59 60 63 62 64 67 65 66 71 75 76 75 71 68 67 67 69 72
48 51 50 49 49 49 48 48 45 42 42 43 43 45 50 50 45 48 54 56 57 57 57 59 59 58 58 58 57 57 57 56 56 56 55 54 49 45 40 34 31 29 28 26 22 19 16 16 18 19 22 26 26 29 34 37 40 41 41 43 46 50 52 53 54 54 57 59 61 62 62 63 65 63 61 63 66 70 74 74 73 70 68 67 66
46 49 50 50 51 51 51 49 44 41 42 42 44 46 48 48 43 42 42 42 47 53 55 55 55 55 57 56 55 54 52 50 50 49 45 39 34 34 33 28 25 24 24 24 23 19 17 19 20 20 23 25 25 26 28 32 34 35 37 41 41 42 44 47 49 50 54 59 60 61 59 59 62 62 61 63 63 65 68 71 72 73 73 71 68
48 50 51 50 53 53 53 52 47 44 43 43 48 52 50 48 46 43 42 38 36 41 47 49 50 53 55 54 51 48 45 44 43 41 36 28 24 26 28 23 18 17 18 20 21 19 20 23 24 23 23 24 25 26 26 28 30 31 35 39 39 40 40 40 42 44 47 52 55 57 58 59 58 59 61 63 64 65 65 65 65 66 68 71 72
50 53 54 52 54 55 55 54 49 46 46 46 50 54 54 54 50 45 46 45 38 36 40 42 43 46 46 45 44 42 40 40 38 35 29 25 24 24 23 20 17 16 17 18 19 20 21 22 23 22 22 23 25 24 23 23 23 24 27 30 34 36 36 37 37 37 37 41 45 51 56 59 59 60 60 60 59 60 60 60 60 61 62 65 67
54 56 57 56 58 58 57 55 51 47 48 48 46 49 53 54 50 45 45 44 40 38 38 37 38 38 37 37 36 34 33 31 28 26 24 24 24 24 22 22 21 19 19 21 21 21 21 20 21 22 23 25 23 20 17 16 16 17 20 24 28 29 30 31 32 30 30 31 35 40 45 50 53 57 60 60 57 57 56 56 57 57 58 60 61
58 59 57 56 59 58 56 54 50 45 44 43 41 43 45 44 45 45 44 43 41 41 38 35 36 35 33 32 29 26 25 24 22 23 26 25 22 22 22 22 20 19 20 21 20 20 20 20 21 22 22 23 24 22 19 18 18 17 18 21 25 25 24 25 26 26 25 24 26 28 31 37 43 47 51 53 52 50 50 51 53 55 56 57 58
57 56 56 55 55 54 53 50 45 40 38 39 38 37 38 38 39 39 40 41 39 36 33 32 31 29 26 26 25 25 25 24 21 19 21 22 22 22 22 20 20 20 20 19 19 20 21 23 23 22 22 23 24 24 25 24 24 20 18 19 21 22 23 23 24 24 24 25 26 27 29 30 34 37 40 43 44 45 46 49 55 57 56 55 56
55 53 54 53 51 51 50 46 41 38 35 33 33 31 30 32 33 31 33 34 32 30 28 28 27 24 23 24 25 24 24 24 23 21 20 23 23 21 21 21 21 21 19 18 19 21 22 22 23 23 24 24 24 23 24 25 25 23 22 22 22 23 24 25 25 25 26 27 29 29 30 30 33 36 37 39 40 41 44 48 52 53 50 51 52
52 54 54 51 50 51 48 44 40 35 31 28 27 27 26 28 28 27 28 27 25 26 26 26 26 25 24 26 25 25 24 24 25 25 24 24 24 22 23 23 21 19 19 20 21 22 22 23 24 25 25 24 24 23 23 25 25 25 25 25 24 24 24 24 24 24 25 26 27 29 30 31 35 38 38 38 39 39 41 44 46 46 47 51 50
55 55 55 52 50 50 47 43 37 31 28 26 26 25 25 26 25 24 25 24 23 25 26 25 25 25 26 26 25 26 27 26 25 25 24 23 24 24 23 22 21 20 20 22 23 24 24 23 23 24 25 25 24 24 25 26 26 26 26 26 25 25 24 24 25 24 23 24 24 25 26 28 31 34 36 38 40 39 39 40 40 41 46 51 51
61 58 56 53 49 48 46 39 32 28 27 26 25 24 24 24 23 24 24 24 24 25 25 24 23 24 26 26 25 24 23 24 24 24 24 24 24 23 21 20 21 22 21 23 25 24 23 23 23 24 24 25 25 26 25 25 24 24 24 25 26 26 25 26 27 27 26 26 26 25 25 25 27 29 31 34 37 38 38 37 36 37 41 44 44
62 59 56 54 50 48 42 35 29 28 26 23 23 23 24 25 25 26 26 25 25 26 25 24 23 25 26 26 25 22 21 23 25 24 24 25 23 22 21 20 20 22 22 23 23 22 22 23 24 24 25 25 24 23 22 21 22 24 24 26 27 27 26 25 25 25 26 27 27 26 26 27 27 28 29 33 35 35 36 36 35 35 36 37 36
56 55 53 53 51 46 39 34 31 29 25 23 24 24 24 26 26 27 27 26 28 28 26 26 27 27 26 26 26 25 24 24 25 25 25 24 22 22 22 21 22 23 23 23 23 22 22 22 24 24 25 24 22 22 23 24 26 28 28 28 27 27 28 27 26 26 27 28 27 26 27 27 27 28 29 30 30 31 31 32 33 34 33 33 34
54 53 50 50 50 44 38 35 31 28 26 25 25 25 26 28 28 29 30 30 33 33 31 32 31 30 29 28 27 27 26 25 25 26 26 24 22 22 22 23 23 23 23 24 24 23 23 22 23 24 23 24 25 27 28 28 27 28 29 29 29 29 29 28 28 28 28 28 28 27 28 28 27 26 24 25 24 24 25 26 28 32 34 34 34
54 52 47 47 47 43 39 37 34 31 30 29 28 27 29 30 32 34 34 34 35 34 33 34 34 34 34 32 29 28 29 29 29 28 26 24 23 22 23 22 23 24 25 25 26 26 26 26 26 26 26 27 27 29 28 28 28 30 31 31 31 31 31 31 30 30 29 29 28 28 28 28 28 28 26 25 25 24 23 24 25 29 33 37 38
53 50 49 49 46 43 41 39 38 38 35 33 31 30 31 33 35 37 36 36 37 34 33 34 36 38 38 37 35 34 34 34 33 31 29 26 25 24 24 25 26 27 28 29 30 30 30 31 31 31 30 29 29 29 29 29 30 31 31 30 31 32 32 33 32 30 30 29 28 29 28 28 28 28 28 28 29 29 28 28 30 32 33 34 35
50 49 49 48 46 44 43 40 41 42 39 36 34 33 36 38 39 39 39 39 40 37 35 36 39 41 41 40 39 37 37 37 36 36 34 30 29 27 28 29 30 31 32 33 35 34 34 34 34 34 33 32 33 32 31 29 29 29 29 28 29 30 31 31 31 31 31 30 29 29 28 27 27 28 28 28 29 30 30 31 34 36 35 34 35
48 48 47 45 44 45 42 40 42 43 41 38 36 36 37 39 41 43 42 42 42 41 40 41 43 45 45 44 43 41 41 40 40 40 39 37 35 32 31 32 34 34 35 37 37 37 38 37 37 37 36 35 35 33 32 31 30 29 28 27 27 28 29 30 31 30 29 30 31 30 28 26 27 29 31 32 31 30 30 32 33 34 34 36 39
51 50 48 47 46 45 43 42 43 43 42 41 39 39 39 40 42 44 44 45 45 46 46 46 48 50 49 49 46 45 45 44 43 42 41 41 38 35 33 33 34 35 35 36 37 38 39 39 39 39 38 35 34 32 30 29 29 28 27 27 28 28 29 30 28 25 23 24 26 28 29 29 29 31 34 37 38 37 37 37 37 37 36 38 40
57 56 52 50 48 46 45 45 43 43 44 44 44 43 43 43 45 45 47 47 48 50 50 49 50 51 51 51 50 48 47 45 42 39 37 38 38 35 32 32 32 34 35 35 36 37 38 39 39 38 37 35 32 29 27 25 25 27 26 26 27 27 27 27 25 22 20 19 18 19 23 27 30 32 35 39 42 43 44 44 43 42 40 40 41
59 59 56 52 50 49 48 47 44 43 45 46 46 47 46 46 47 47 47 48 48 49 50 50 51 51 51 53 52 48 47 45 41 37 36 36 37 35 32 30 32 33 34 36 35 36 36 36 36 34 33 32 30 29 27 25 25 27 26 26 26 25 25 25 25 25 23 19 17 19 22 24 27 30 33 37 38 39 41 41 41 41 41 41 41
56 58 58 56 54 53 51 50 46 44 45 45 45 47 48 47 48 48 48 48 48 49 50 51 53 54 53 55 54 50 48 47 44 39 36 35 37 36 32 30 32 33 34 35 35 34 34 34 34 33 31 31 31 31 30 28 28 27 26 26 26 26 26 27 27 28 28 24 20 24 29 29 28 28 29 30 32 33 34 34 35 35 37 39 41
56 59 62 62 60 57 55 53 48 45 45 44 43 45 48 48 49 50 50 49 49 51 52 53 55 56 56 57 56 53 52 52 48 42 38 36 36 35 31 29 31 33 33 33 33 34 34 34 34 34 32 31 31 30 29 28 27 27 27 26 27 27 27 28 29 29 29 29 27 27 31 32 31 31 31 30 31 31 32 33 34 34 35 36 37
56 59 61 63 63 60 56 53 49 45 45 46 45 47 49 50 50 52 52 51 51 52 53 55 58 59 58 58 58 56 55 54 49 44 40 38 35 33 30 29 31 32 32 31 31 31 32 33 33 33 32 31 30 29 27 27 27 27 27 27 27 28 28 28 29 28 28 30 30 29 29 28 28 30 31 31 31 30 31 31 32 34 34 34 32
55 58 60 61 61 58 55 53 50 48 49 50 51 50 50 51 51 53 54 54 53 52 53 57 59 59 60 60 59 58 57 54 48 44 39 36 33 31 28 29 30 31 30 28 28 29 30 32 32 32 31 30 29 28 27 27 27 27 27 28 27 28 28 28 29 29 28 29 30 31 30 28 27 28 29 30 29 29 29 29 30 32 32 33 33
54 56 57 57 56 55 55 55 53 52 52 52 53 53 53 52 53 55 58 59 57 56 56 59 59 59 60 61 60 59 57 52 47 43 38 35 32 29 27 29 31 29 28 27 28 31 32 32 31 30 30 29 28 28 28 28 28 28 28 28 28 29 29 30 30 29 28 28 28 29 30 30 29 29 28 28 27 27 28 29 29 29 29 30 30
50 50 51 51 52 53 56 58 57 56 55 52 53 57 58 59 59 60 61 62 60 59 59 59 61 60 60 61 61 59 55 51 47 42 38 35 31 28 28 30 30 29 28 30 31 32 32 31 30 29 29 29 28 29 30 29 29 29 29 29 29 30 30 30 29 28 27 25 26 28 29 29 29 29 29 29 29 30 31 30 29 29 28 27 26
50 51 51 51 53 54 57 58 57 57 56 56 58 61 63 65 65 68 68 66 65 63 61 61 62 62 62 62 61 58 53 48 44 39 36 32 30 30 30 30 30 30 31 33 32 31 31 29 29 29 28 29 30 30 31 30 30 29 29 29 28 28 28 28 27 26 24 23 25 27 28 27 28 28 29 30 31 34 34 34 32 30 30 29 28
53 53 52 52 53 55 57 55 53 56 60 65 68 70 71 73 73 73 72 69 68 65 63 62 64 64 65 64 60 55 50 44 38 35 33 31 30 31 30 31 31 32 32 32 31 30 29 28 28 29 29 29 30 30 29 28 27 26 26 26 26 26 27 26 25 24 23 23 24 26 26 27 29 32 35 36 37 38 38 37 37 37 37 35 32
54 51 52 52 52 55 56 53 54 62 66 69 70 68 68 69 71 73 73 69 68 66 63 64 65 64 65 63 58 51 45 39 35 33 31 29 30 31 31 31 32 32 32 31 30 29 29 29 28 28 28 28 27 27 27 26 25 25 25 25 26 27 27 28 27 26 25 25 25 26 27 29 33 38 43 43 42 42 41 40 41 42 42 39 36
52 51 55 56 57 60 61 57 58 65 66 65 66 63 61 63 69 76 77 72 69 65 62 62 64 64 62 59 51 45 41 36 33 31 30 30 31 32 33 33 32 32 31 30 29 28 29 29 28 28 29 29 30 30 30 30 30 30 30 31 31 32 33 34 35 34 33 33 32 31 32 34 37 40 43 44 43 43 43 43 43 43 43 42 41
52 56 60 61 61 64 66 65 64 66 66 65 66 66 65 66 70 75 75 73 69 64 61 62 64 62 58 52 44 39 35 32 31 31 31 33 34 34 33 32 31 30 29 29 28 29 30 31 31 31 32 32 33 34 35 35 36 38 39 40 40 40 41 42 42 42 42 41 39 38 38 39 39 39 40 42 42 43 44 46 46 46 46 45 44
59 63 64 65 65 66 68 69 68 68 67 65 64 66 67 67 68 70 70 69 66 63 62 63 61 56 51 43 36 33 31 32 32 33 33 34 35 34 32 30 29 29 29 29 31 32 33 33 33 33 34 33 34 35 36 38 40 42 45 46 46 46 47 48 48 47 46 45 44 44 45 45 44 43 43 44 43 44 46 47 47 47 45 44 44
64 66 67 68 69 67 67 66 63 63 63 61 61 64 66 65 65 66 65 64 63 62 62 59 54 48 42 34 31 33 34 34 35 35 34 33 32 31 30 28 28 28 30 32 33 33 33 33 33 34 35 35 35 36 37 39 41 44 47 48 48 48 50 51 52 51 50 50 50 51 50 50 50 49 49 49 50 49 50 50 49 49 47 45 44
62 65 67 67 65 64 65 65 63 61 61 61 62 65 65 63 63 62 61 62 61 58 54 51 46 41 36 33 35 37 36 36 36 34 33 31 30 29 28 28 29 31 32 32 32 32 31 30 30 31 33 34 36 37 38 40 41 44 47 49 50 51 52 54 55 55 55 56 56 55 55 54 54 53 52 52 53 53 53 52 51 50 47 45 43
59 61 63 63 62 63 67 70 69 67 64 64 66 68 67 64 62 59 58 57 54 49 45 43 41 39 37 36 37 36 35 34 33 31 30 29 28 27 27 29 31 31 31 30 30 29 28 28 29 30 31 32 34 36 39 43 46 48 50 51 53 55 57 58 59 58 59 60 59 59 58 57 56 55 53 53 53 52 52 51 50 49 49 47 45
63 62 62 65 68 68 68 71 71 67 65 66 67 66 61 56 51 47 45 46 44 41 39 38 38 38 37 36 35 34 33 32 30 28 27 26 26 28 31 32 30 29 29 29 28 26 27 29 30 30 30 32 35 38 40 44 48 51 53 55 58 60 62 62 61 60 60 61 61 60 60 59 58 57 56 56 56 55 53 51 49 49 50 49 48
63 61 61 68 73 70 67 67 66 63 62 62 59 52 44 41 39 38 37 37 37 36 36 36 36 36 34 33 32 32 31 30 28 27 26 25 27 31 34 31 27 27 27 26 25 27 29 31 30 29 30 32 36 39 42 45 47 50 55 58 61 63 64 64 63 62 62 63 64 65 64 63 62 60 60 59 59 58 56 55 54 53 52 52 51
63 63 65 70 70 65 61 60 59 57 55 52 46 40 35 36 39 40 37 35 35 36 35 34 35 34 33 31 31 31 30 29 27 26 25 26 29 33 32 27 25 25 25 24 26 30 31 30 29 29 30 32 35 41 46 49 51 53 58 62 64 66 68 70 70 71 71 71 71 71 70 69 67 66 65 65 63 61 59 58 57 56 55 54 53
67 68 68 66 63 59 57 56 54 50 46 43 39 37 35 34 35 34 32 32 35 35 34 34 35 34 33 32 32 31 29 28 27 26 26 27 30 31 29 25 24 24 24 26 30 31 30 28 27 28 30 34 39 44 49 53 57 60 63 67 71 74 77 78 79 80 80 80 80 78 76 75 74 73 71 70 68 66 64 62 61 59 57 55 53
66 66 63 59 57 55 53 50 47 42 39 37 36 36 35 33 30 29 28 30 32 33 33 35 35 35 33 33 32 30 29 29 28 25 26 29 31 29 24 20 21 22 25 27 30 29 27 25 25 28 33 39 45 50 54 59 65 69 73 77 80 82 82 82 82 81 80 81 81 80 79 77 76 76 75 73 71 69 67 64 62 60 58 55 53
62 60 57 54 52 50 46 43 40 37 35 32 31 31 31 30 29 29 29 30 31 33 35 36 36 35 33 31 29 29 29 28 26 24 27 31 29 23 19 20 22 23 25 27 28 27 25 23 24 30 38 46 52 55 60 66 72 78 83 86 85 84 84 84 83 82 80 80 81 82 81 79 78 77 77 75 71 68 66 64 63 61 59 57 56
55 53 51 48 46 44 41 38 37 36 34 31 28 29 32 34 33 32 32 35 35 36 38 39 36 35 33 29 29 30 29 26 24 26 29 30 27 21 21 23 24 24 25 26 26 25 23 23 26 33 43 51 56 60 64 71 77 82 85 86 85 84 86 87 86 85 83 83 85 84 82 81 80 79 78 75 71 69 68 66 66 65 65 64 63